Location: Camp Creek
(33.9000°N, 111.8167°W)
Time: 16:19:07
(UTC-07:00)

DELTA 2 R/B (1) - Visible Passes

Search period start: 19 April 2018 00:00
Search period end: 29 April 2018 00:00
Orbit: 791 x 802 km, 39.6° (Epoch: 19 April)

Date Brightness Start Highest point End Pass type
(mag) Time Alt. Az. Time Alt. Az. Time Alt. Az.
19 Apr 5.8 20:35:24 10° WSW 20:38:13 14° SW 20:41:03 10° S visible
20 Apr 5.8 20:04:11 10° WSW 20:07:26 16° SW 20:10:40 10° S visible
21 Apr 5.8 19:33:03 10° W 19:36:38 18° SW 19:40:12 10° S visible
